Terminal Aerodrome Forecast
Issued by NWS

Home | Current Version | Previous Version | Text Only | Print | Product List | Glossary On
Versions: 1 2 3 4 5 6 7 8 9 10 11 12
000
FTUS43 KICT 262300
TAFCNU
TAF
KCNU 262331Z 2700/2724 19015G22KT P6SM VCTS BKN130CB
     FM270100 19008KT P6SM SCT110
     FM270900 VRB03KT P6SM SCT110
     FM271300 02010KT P6SM FEW040 BKN120=

USA.gov is the U.S. government's official web portal to all federal, state and local government web resources and services.